EST,Max TemperatureF,Mean TemperatureF,Min TemperatureF,Max Dew PointF,MeanDew PointF,Min DewpointF,Max Humidity, Mean Humidity, Min Humidity, Max Sea Level PressureIn, Mean Sea Level PressureIn, Min Sea Level PressureIn, Max VisibilityMiles, Mean VisibilityMiles, Min VisibilityMiles, Max Wind SpeedMPH, Mean Wind SpeedMPH, Max Gust SpeedMPH,PrecipitationIn, CloudCover, Events, WindDirDegrees
2012-12-1,48,39,30,41,33,30,100,93,71,30.48,30.42,30.38,10,5,1,7,2,,0.00,4,,22
2012-12-2,51,40,30,46,39,30,100,95,62,30.43,30.29,30.16,7,3,0,6,1,,0.00,7,Fog-Snow,244
2012-12-3,69,54,39,57,47,39,100,94,60,30.28,30.22,30.17,10,8,3,6,2,,0.00,3,,197
2012-12-4,71,56,42,57,49,43,100,85,53,30.25,30.17,30.02,10,7,2,10,2,,0.00,4,,203
2012-12-5,60,46,32,50,38,25,77,65,41,30.36,30.17,30.00,10,10,10,20,9,29,0.00,3,,306
2012-12-6,46,34,21,28,26,21,100,85,46,30.42,30.33,30.27,10,10,10,8,2,,0.00,0,,14
2012-12-7,48,40,32,43,36,28,100,93,76,30.26,30.14,30.00,10,7,1,9,1,,0.00,7,Rain,7
2012-12-8,57,49,41,50,44,41,100,96,72,30.05,29.97,29.91,10,5,0,7,3,,0.00,7,Fog-Rain,359
2012-12-9,48,45,42,48,45,43,100,100,100,30.21,30.11,30.00,4,2,0,9,2,,0.03,8,Fog-Rain,21
2012-12-10,59,50,42,57,49,43,100,99,82,29.99,29.76,29.60,10,3,0,18,2,24,0.01,7,Fog,241
2012-12-11,50,41,32,41,36,30,100,81,57,30.25,30.00,29.73,10,10,10,15,7,30,0.00,5,Rain,319
2012-12-12,44,37,30,34,32,30,100,92,57,30.48,30.38,30.25,10,10,7,5,1,,0.00,2,Snow,91
2012-12-13,51,36,21,34,28,21,100,91,41,30.50,30.43,30.38,10,8,5,7,0,,0.00,0,Snow,27
2012-12-14,53,38,23,32,27,23,100,89,35,30.38,30.31,30.23,10,8,3,9,1,,0.00,0,Snow,204
2012-12-15,55,40,26,36,32,27,100,81,41,30.33,30.24,30.15,10,10,7,8,1,,0.00,2,Rain-Snow,137
2012-12-16,50,46,42,43,40,36,100,86,71,30.16,30.01,29.87,10,7,2,7,3,,0.00,7,Rain,144
2012-12-17,50,46,42,50,46,43,100,100,94,29.89,29.77,29.57,5,3,1,6,1,,0.10,8,Fog-Rain,61
2012-12-18,57,47,37,50,41,32,100,85,59,29.84,29.67,29.55,10,7,0,23,6,29,0.00,4,Fog-Rain,254
2012-12-19,53,42,32,39,34,30,100,80,54,30.20,29.99,29.82,10,9,7,16,2,22,0.00,4,Snow,341
2012-12-20,46,39,32,45,36,32,100,93,62,30.22,30.00,29.47,10,8,5,14,2,23,0.16,3,Rain-Snow,121
2012-12-21,51,43,35,52,33,25,100,76,60,29.58,29.44,29.30,10,9,4,23,13,31,0.21,8,Rain,270
2012-12-22,41,36,32,27,25,23,70,65,49,30.05,29.83,29.57,10,10,10,32,16,47,0.00,5,Snow,291
2012-12-23,46,34,21,27,24,21,100,75,39,30.08,30.02,29.92,10,10,10,17,6,21,0.00,0,Snow,219
2012-12-24,37,30,24,32,29,25,100,95,70,30.12,30.01,29.94,10,6,0,9,2,,0.07,4,Snow,25
2012-12-25,51,38,26,41,33,27,100,94,62,30.28,30.11,29.94,10,4,0,7,1,,0.00,6,Fog,37
2012-12-26,35,32,30,36,31,28,100,95,87,30.29,29.93,29.47,10,6,0,18,8,24,0.08,8,Rain-Snow,14
2012-12-27,37,35,33,36,31,28,100,87,70,30.05,29.75,29.47,10,10,7,22,11,33,0.00,8,Rain,312
2012-12-28,44,36,28,30,29,27,100,84,53,30.17,30.09,30.04,10,9,7,7,4,16,0.00,2,,316
2012-12-29,37,34,30,36,31,28,100,90,75,30.06,29.83,29.61,10,7,0,28,5,33,0.00,7,Rain-Snow,322
2012-12-30,35,32,28,30,25,21,87,72,56,30.35,30.13,29.85,10,10,7,24,12,34,0.00,5,,296
2012-12-31,33,28,24,28,24,19,87,78,65,30.34,30.20,30.01,10,10,10,9,6,,0.00,2,,206